Starlink 11168

operational
NORAD ID: 60183 Int'l Des: 2024-124 Owner: SPXS Country: US Constellation: starlink
LEOCIRCULAR

Starlink 11168について

説明を読み込み中...

リアルタイム位置

3D地球を読み込み中...

次回通過

高度履歴

Altitude vs Time

uPlot chart will show altitude changes over time

軌道要素

1 60183U 24124A 25304.74942264 .00023789 00000-0 20070-3 0 9994
2 60183 53.1558 76.8107 0001457 81.3372 278.7811 15.69704350 77476
Epoch: Oct 31, 2025 • Age: 23 hours

現在のステータス

高度 364.5 km
速度 7.70 km/s
衛星直下点 50.38°N, 163.35°W
打ち上げ日 Jul 3, 2024
運用期間 1.3 years
タイプ internet

技術仕様

分類 Payload
質量 960.00 kg
乾燥質量 910.00 kg
総質量 960.00 kg
長さ 0.30 m
直径 4.10 m
スパン 29.00 m
形状 Box + pan
製造者 SPXS
バスタイプ Starlink V2MD
フェーズステータス In Orbit
所有者/国 SPXS/US

大規模コンステレーション

Loading constellations...